{"data":{"norad_id":67809,"epoch":"2026-09-19T18:57:54.474048Z","epoch_age_seconds":127717,"freshness":"FRESH","line1":"1 67809U 26032N   26262.79021382  .00018360  00000+0  56930-3 0  9996","line2":"2 67809  97.2859  89.1638 0000705  84.6177 275.5146 15.33465192 34705","mean_motion":15.33465192,"eccentricity":7.05e-5,"inclination_deg":97.2859,"raan_deg":89.1638,"arg_perigee_deg":84.6177,"mean_anomaly_deg":275.5146,"bstar":0.0005693,"rev_number":3470,"period_min":93.90496814094,"perigee_km":465.00062273473,"apogee_km":465.96557316854,"semimajor_km":6843.6200979516,"source":"CELESTRAK","updated_at":"2026-09-20T09:00:43.664184Z"}}